This is the latest recevied weather packets stored in our database for station/object AE5HO. If no packets are shown the sender has not sent any weather packets the latest 10 day(s).
| Time | Temp. | Humidity | Pressure | Rain* | Wind** | Luminosity | Snow |
|---|---|---|---|---|---|---|---|
| 1787619657 | 38.33° C | 28% | 1011.4 hPa | 0 mm | - | 0 W/m² | - |
| 1787619353 | 38.33° C | 28% | 1011.5 hPa | 0 mm | - | 0 W/m² | - |
| 1787619052 | 38.89° C | 28% | 1011.7 hPa | 0 mm | - | 2 W/m² | - |
| 1787618747 | 38.89° C | 28% | 1011.8 hPa | 0 mm | - | 4 W/m² | - |
| 1787618445 | 38.89° C | 27% | 1011.3 hPa | 0 mm | - | 5 W/m² | - |
| 1787618141 | 39.44° C | 27% | 1011.2 hPa | 0 mm | - | 10 W/m² | - |
| 1787617836 | 40° C | 27% | 1011.4 hPa | 0 mm | - | 13 W/m² | - |
| 1787617531 | 40.56° C | 27% | 1011.2 hPa | 0 mm | - | 24 W/m² | - |
| 1787617231 | 41.11° C | 26% | 1011.3 hPa | 0 mm | - | 35 W/m² | - |
| 1787616930 | 41.11° C | 25% | 1011.3 hPa | 0 mm | - | 44 W/m² | - |
| 1787616625 | 41.11° C | 25% | 1011.1 hPa | 0 mm | - | 53 W/m² | - |
| 1787616324 | 41.67° C | 25% | 1011.4 hPa | 0 mm | - | 43 W/m² | - |
| 1787616023 | 41.67° C | 25% | 1011.3 hPa | 0 mm | - | 32 W/m² | - |
| 1787615723 | 41.67° C | 24% | 1011.2 hPa | 0 mm | - | 35 W/m² | - |
| 1787615422 | 42.22° C | 24% | 1011.2 hPa | 0 mm | - | 87 W/m² | - |
| 1787615119 | 42.22° C | 24% | 1011.4 hPa | 0 mm | - | 49 W/m² | - |
| 1787614814 | 41.67° C | 25% | 1011 hPa | 0 mm | - | 102 W/m² | - |
| 1787614511 | 42.22° C | 24% | 1011.3 hPa | 0 mm | - | 29 W/m² | - |
| 1787614208 | 42.22° C | 24% | 1011.1 hPa | 0 mm | - | 34 W/m² | - |
| 1787613904 | 41.67° C | 25% | 1011.4 hPa | 0 mm | - | 98 W/m² | - |
| 1787613599 | 41.67° C | 25% | 1011.3 hPa | 0 mm | - | 50 W/m² | - |
| 1787613294 | 42.22° C | 24% | 1011.2 hPa | 0 mm | - | 33 W/m² | - |
| 1787612991 | 42.22° C | 25% | 1011.2 hPa | 0 mm | - | 32 W/m² | - |
| 1787612686 | 42.22° C | 25% | 1011.1 hPa | 0 mm | - | 33 W/m² | - |
| 1787612383 | 41.67° C | 24% | 1011.3 hPa | 0 mm | - | 35 W/m² | - |
* Rain latest hour (hover to see other rain measurements)
** Current wind speed in m/s (hover to see current wind gust speed)